ZHUHAI-1 03B (44536 NORAD) Tracking and Keplerian Element Data

This shows tracking and keplerian element data for the satellite.

Feedback or suggestion? Click here.




ElementValue
Catalog44536
NameZHUHAI-1 03B
Epoch Orbit435
Epoch Day290.94324975
Epoch Year2019
RAAN40.9628
Inclination97.4052
Eccentricity0.0011104
Argument of Perigee201.8333
Mean Anonmoly295.0855
Mean Motion15.17723511
Decay Rate5.61E-06
L11 44536U 19060C 19290.94324975 .00000561 00000-0 31096-4 0 9997
L22 44536 97.4052 40.9628 0011104 201.8333 295.0855 15.17723511 4356

Live tracking and technical data element details for ZHUHAI-1 03B (NORAD 44536). ZHUHAI-1 03B can be tracked NOW for your location showing map with azimuth and elevation plus other details from your city location.

Track the satellite on the map from your city or location and see movement details for azimuth, elevation, latitude, longitude, range, height, and movement on the map or in text.







IsCatalogInMostPopularTable: catalog: 44536, numindb: 19
Update: records affected: 1



GetName: 44536 ZHUHAI-1 03B

Hit Count: updated at: Thu, 05 Dec 2019 17:25:51 GMT